This is the latest recevied weather packets stored in our database for station/object YM2KRB-11. If no packets are shown the sender has not sent any weather packets the latest 10 day(s).
| Time | Temp. | Humidity | Pressure | Rain* | Wind** | Luminosity | Snow |
|---|---|---|---|---|---|---|---|
| 1777758097 | 10° C | 57% | 940.8 hPa | - | - | - | - |
| 1777756897 | 10.56° C | 58% | 941 hPa | - | - | - | - |
| 1777755696 | 10.56° C | 57% | 940.8 hPa | - | - | - | - |
| 1777754495 | 11.11° C | 57% | 940.8 hPa | - | - | - | - |
| 1777753294 | 10° C | 58% | 941 hPa | - | - | - | - |
| 1777752093 | 11.11° C | 56% | 941.2 hPa | - | - | - | - |
| 1777750892 | 11.67° C | 54% | 941.2 hPa | - | - | - | - |
| 1777749692 | 11.67° C | 55% | 941.2 hPa | - | - | - | - |
| 1777748491 | 13.33° C | 53% | 941.3 hPa | - | - | - | - |
| 1777747290 | 14.44° C | 49% | 941.3 hPa | - | - | - | - |
| 1777746089 | 13.33° C | 53% | 941.1 hPa | - | - | - | - |
| 1777744889 | 13.33° C | 53% | 940.9 hPa | - | - | - | - |
| 1777743688 | 16.11° C | 48% | 940.9 hPa | - | - | - | - |
| 1777742487 | 12.22° C | 55% | 940.7 hPa | - | - | - | - |
| 1777741286 | 12.78° C | 53% | 940.6 hPa | - | - | - | - |
| 1777740085 | 12.22° C | 54% | 940.4 hPa | - | - | - | - |
| 1777738885 | 12.78° C | 52% | 940.5 hPa | - | - | - | - |
| 1777737684 | 12.78° C | 52% | 940.2 hPa | - | - | - | - |
| 1777736483 | 13.33° C | 51% | 940.7 hPa | - | - | - | - |
| 1777735282 | 12.22° C | 53% | 940.5 hPa | - | - | - | - |
| 1777734082 | 13.89° C | 50% | 940.6 hPa | - | - | - | - |
| 1777732880 | 13.33° C | 52% | 940.6 hPa | - | - | - | - |
| 1777731680 | 13.33° C | 53% | 940.7 hPa | - | - | - | - |
| 1777730479 | 13.33° C | 54% | 940.8 hPa | - | - | - | - |
| 1777729278 | 11.11° C | 59% | 941 hPa | - | - | - | - |
* Rain since midnight (hover to see other rain measurements)
** Current wind speed in m/s (hover to see current wind gust speed)